This is the latest recevied weather packets stored in our database for station/object N9BSW. If no packets are shown the sender has not sent any weather packets the latest 10 day(s).
| Time | Temp. | Humidity | Pressure | Rain* | Wind** | Luminosity | Snow |
|---|---|---|---|---|---|---|---|
| 1777567588 | 13.89° C | 39% | 1017.6 hPa | 0 mm | - | 812 W/m² | - |
| 1777567286 | 13.89° C | 46% | 1017.5 hPa | 0 mm | - | 807 W/m² | - |
| 1777566984 | 13.33° C | 41% | 1017.7 hPa | 0 mm | - | 801 W/m² | - |
| 1777566682 | 13.89° C | 39% | 1017.8 hPa | 0 mm | - | 796 W/m² | - |
| 1777566379 | 14.44° C | 43% | 1017.6 hPa | 0 mm | - | 787 W/m² | - |
| 1777566076 | 14.44° C | 46% | 1017.7 hPa | 0 mm | - | 785 W/m² | - |
| 1777565771 | 13.89° C | 46% | 1017.8 hPa | 0 mm | - | 774 W/m² | - |
| 1777565468 | 13.89° C | 49% | 1017.9 hPa | 0 mm | - | 780 W/m² | - |
| 1777565165 | 13.33° C | 46% | 1018 hPa | 0 mm | - | 760 W/m² | - |
| 1777564861 | 13.89° C | 45% | 1018 hPa | 0 mm | - | 746 W/m² | - |
| 1777564561 | 13.33° C | 44% | 1018 hPa | 0 mm | - | 734 W/m² | - |
| 1777564257 | 13.33° C | 51% | 1018.2 hPa | 0 mm | - | 728 W/m² | - |
| 1777563954 | 12.78° C | 46% | 1018 hPa | 0 mm | - | 713 W/m² | - |
| 1777563650 | 12.78° C | 44% | 1018.3 hPa | 0 mm | - | 705 W/m² | - |
| 1777563349 | 12.78° C | 50% | 1018.3 hPa | 0 mm | - | 694 W/m² | - |
| 1777563046 | 12.78° C | 47% | 1018.2 hPa | 0 mm | - | 683 W/m² | - |
| 1777562742 | 12.22° C | 53% | 1018.1 hPa | 0 mm | - | 671 W/m² | - |
| 1777562441 | 12.22° C | 52% | 1018.1 hPa | 0 mm | - | 660 W/m² | - |
| 1777562137 | 12.78° C | 53% | 1018.3 hPa | 0 mm | - | 648 W/m² | - |
| 1777561835 | 12.22° C | 54% | 1018.2 hPa | 0 mm | - | 633 W/m² | - |
| 1777561532 | 11.11° C | 53% | 1018 hPa | 0 mm | - | 621 W/m² | - |
| 1777561227 | 11.67° C | 50% | 1018.1 hPa | 0 mm | - | 608 W/m² | - |
| 1777560926 | 11.67° C | 55% | 1018.1 hPa | 0 mm | - | 596 W/m² | - |
| 1777560623 | 12.22° C | 53% | 1018.2 hPa | 0 mm | - | 580 W/m² | - |
| 1777560321 | 12.22° C | 53% | 1018 hPa | 0 mm | - | 568 W/m² | - |
* Rain latest hour (hover to see other rain measurements)
** Current wind speed in m/s (hover to see current wind gust speed)